Terminal Aerodrome Forecast
Issued by NWS Wilmington, OH

Current Version | Previous Version | Graphics & Text | Print | Product List | Glossary On
Versions: 1 2 3 4 5 6 7 8 9 10 11 12 13 14 15 16 17 18 19 20 21 22
011
FTUS41 KILN 192327
TAFILN
TAF
KILN 192327Z 2000/2024 VRB03KT P6SM VCSH BKN040
     FM200200 VRB03KT P6SM SCT250
     FM200700 VRB03KT 5SM BR SCT015
     FM201000 VRB03KT 1SM BR BKN012
     FM201400 VRB04KT P6SM BKN015
     FM201700 24005KT P6SM SCT050=

USA.gov is the U.S. government's official web portal to all federal, state and local government web resources and services.